EZY735K EGSS-EGPH

Flight info

Callsign EZY735K
Flight time 0h 53m
Altitude 32000
Route UTAVA Q75 BUZAD T420 TNT UN57 POL UN601 RIBEL DCT INPIP
Aircraft A20N/M-SDE2E3FGHIJ1RWXYZ/LB1

Departure

Time 2026-05-04 12:55
Airport London Stansted Airport (EGSS)

Arrival

Time 2026-05-04 13:48
Airport Edinburgh Airport (EGPH)
Time Latitude Longitude Altitude Speed Heading
2026-05-04 12:09 51.89008 0.25748 354 ft 0 kts 43°
2026-05-04 12:14 51.89007 0.25746 354 ft 0 kts 43°
2026-05-04 12:39 51.89007 0.25745 354 ft 1 kts 43°
2026-05-04 12:39 51.88991 0.25715 356 ft 4 kts 59°
2026-05-04 12:39 51.88981 0.25688 352 ft 4 kts 25°
2026-05-04 12:39 51.88966 0.25691 352 ft 2 kts 313°
2026-05-04 12:40 51.88969 0.25685 352 ft 0 kts 313°
2026-05-04 12:44 51.88969 0.25684 352 ft 0 kts 313°
2026-05-04 12:44 51.88985 0.25658 351 ft 7 kts 313°
2026-05-04 12:44 51.89044 0.25555 357 ft 17 kts 313°
2026-05-04 12:45 51.89121 0.25419 347 ft 17 kts 313°
2026-05-04 12:45 51.89169 0.25266 346 ft 14 kts 248°
2026-05-04 12:45 51.89111 0.25178 346 ft 13 kts 223°
2026-05-04 12:45 51.89040 0.25070 352 ft 15 kts 223°
2026-05-04 12:46 51.88955 0.24942 346 ft 18 kts 223°
2026-05-04 12:46 51.88858 0.24796 351 ft 20 kts 223°
2026-05-04 12:46 51.88751 0.24632 346 ft 22 kts 223°
2026-05-04 12:46 51.88633 0.24455 349 ft 24 kts 223°
2026-05-04 12:47 51.88508 0.24263 349 ft 26 kts 224°
2026-05-04 12:47 51.88378 0.24070 353 ft 24 kts 221°
2026-05-04 12:47 51.88247 0.23877 349 ft 26 kts 222°
2026-05-04 12:47 51.88134 0.23709 344 ft 17 kts 223°
2026-05-04 12:48 51.88042 0.23571 354 ft 18 kts 223°
2026-05-04 12:48 51.87948 0.23429 345 ft 19 kts 223°
2026-05-04 12:48 51.87847 0.23278 350 ft 14 kts 221°
2026-05-04 12:48 51.87766 0.23157 343 ft 14 kts 223°
2026-05-04 12:49 51.87738 0.23025 353 ft 12 kts 296°
2026-05-04 12:49 51.87782 0.22917 352 ft 10 kts 273°
2026-05-04 12:49 51.87737 0.22815 348 ft 13 kts 223°
2026-05-04 12:49 51.87660 0.22703 350 ft 16 kts 221°
2026-05-04 12:50 51.87567 0.22565 336 ft 20 kts 224°
2026-05-04 12:50 51.87519 0.22428 340 ft 12 kts 292°
2026-05-04 12:50 51.87577 0.22319 338 ft 12 kts 318°
2026-05-04 12:50 51.87584 0.22310 337 ft 0 kts 320°
2026-05-04 12:51 51.87584 0.22309 337 ft 1 kts 320°
2026-05-04 12:54 51.87594 0.22296 332 ft 6 kts 320°
2026-05-04 12:54 51.87685 0.22267 336 ft 17 kts 18°
2026-05-04 12:54 51.87874 0.22539 344 ft 68 kts 43°
2026-05-04 12:55 51.88366 0.23269 336 ft 123 kts 43°
2026-05-04 12:55 51.89120 0.24400 486 ft 160 kts 41°
2026-05-04 12:55 51.89930 0.25580 1427 ft 156 kts 40°
2026-05-04 12:55 51.90747 0.26730 2304 ft 155 kts 40°
2026-05-04 12:56 51.91546 0.27822 2997 ft 147 kts 39°
2026-05-04 12:56 51.92405 0.28772 3415 ft 159 kts 32°
2026-05-04 12:56 51.93517 0.29261 3756 ft 178 kts 353°
2026-05-04 12:56 51.94686 0.28483 4173 ft 196 kts 324°
2026-05-04 12:57 51.95779 0.26941 4632 ft 211 kts 315°
2026-05-04 12:57 51.96759 0.24958 5099 ft 234 kts 297°
2026-05-04 12:57 51.97269 0.22358 5647 ft 256 kts 277°
2026-05-04 12:57 51.97528 0.19355 6356 ft 271 kts 278°
2026-05-04 12:58 51.97832 0.16327 7339 ft 272 kts 279°
2026-05-04 12:58 51.98157 0.13334 8362 ft 274 kts 279°
2026-05-04 12:58 51.98506 0.10223 9341 ft 278 kts 279°
2026-05-04 12:58 51.98811 0.07108 10295 ft 282 kts 274°
2026-05-04 12:59 51.98822 0.03813 10767 ft 302 kts 264°
2026-05-04 12:59 51.98549 0.00305 11093 ft 325 kts 262°
2026-05-04 12:59 51.98189 -0.03340 11675 ft 334 kts 253°
2026-05-04 12:59 51.97169 -0.06734 11963 ft 335 kts 233°
2026-05-04 13:00 51.95715 -0.09688 12039 ft 336 kts 231°
2026-05-04 13:00 51.94236 -0.12633 12039 ft 335 kts 231°
2026-05-04 13:00 51.92806 -0.15512 12048 ft 335 kts 234°
2026-05-04 13:00 51.91795 -0.18978 12052 ft 336 kts 256°
2026-05-04 13:01 51.91701 -0.22724 12296 ft 342 kts 279°
2026-05-04 13:01 51.92564 -0.26345 13180 ft 347 kts 301°
2026-05-04 13:01 51.94209 -0.29311 14027 ft 354 kts 317°
2026-05-04 13:01 51.96115 -0.31838 14732 ft 359 kts 320°
2026-05-04 13:02 51.98130 -0.34363 15481 ft 364 kts 321°
2026-05-04 13:02 52.00121 -0.36870 16201 ft 368 kts 320°
2026-05-04 13:02 52.02159 -0.39483 16934 ft 373 kts 320°
2026-05-04 13:02 52.03501 -0.41228 17409 ft 376 kts 320°
2026-05-04 13:03 52.06310 -0.44916 18371 ft 382 kts 319°
2026-05-04 13:03 52.08340 -0.47597 19015 ft 385 kts 319°
2026-05-04 13:03 52.09765 -0.49482 19455 ft 387 kts 319°
2026-05-04 13:03 52.12538 -0.53155 20273 ft 392 kts 319°
2026-05-04 13:04 52.14655 -0.55963 20909 ft 395 kts 319°
2026-05-04 13:04 52.16119 -0.57906 21319 ft 398 kts 319°
2026-05-04 13:04 52.18270 -0.60765 21933 ft 401 kts 319°
2026-05-04 13:04 52.20454 -0.63671 22548 ft 405 kts 319°
2026-05-04 13:05 52.22618 -0.66554 23151 ft 408 kts 319°
2026-05-04 13:05 52.24829 -0.69503 23719 ft 412 kts 319°
2026-05-04 13:05 52.27051 -0.72471 24245 ft 414 kts 319°
2026-05-04 13:05 52.29287 -0.75462 24752 ft 417 kts 319°
2026-05-04 13:06 52.31496 -0.78421 25243 ft 419 kts 319°
2026-05-04 13:06 52.33888 -0.81629 25748 ft 422 kts 319°
2026-05-04 13:06 52.36147 -0.84663 26211 ft 425 kts 319°
2026-05-04 13:06 52.38479 -0.87800 26677 ft 428 kts 319°
2026-05-04 13:07 52.40786 -0.90908 27119 ft 431 kts 319°
2026-05-04 13:07 52.43078 -0.94002 27551 ft 434 kts 319°
2026-05-04 13:07 52.45410 -0.97154 27951 ft 437 kts 319°
2026-05-04 13:07 52.47727 -1.00291 28339 ft 439 kts 319°
2026-05-04 13:08 52.50177 -1.03612 28750 ft 442 kts 319°
2026-05-04 13:08 52.52545 -1.06825 29101 ft 446 kts 320°
2026-05-04 13:08 52.54959 -1.10105 29441 ft 449 kts 320°
2026-05-04 13:08 52.57312 -1.13307 29786 ft 452 kts 320°
2026-05-04 13:09 52.59770 -1.16657 30120 ft 455 kts 320°
2026-05-04 13:09 52.62201 -1.19977 30448 ft 457 kts 320°
2026-05-04 13:09 52.64720 -1.23422 30777 ft 459 kts 321°
2026-05-04 13:09 52.67212 -1.26835 31113 ft 461 kts 321°
2026-05-04 13:10 52.69655 -1.30131 31489 ft 461 kts 324°
2026-05-04 13:10 52.72319 -1.33054 31863 ft 460 kts 329°
2026-05-04 13:10 52.75019 -1.35783 32056 ft 458 kts 329°
2026-05-04 13:11 52.80433 -1.41308 32074 ft 457 kts 330°
2026-05-04 13:11 52.85852 -1.46860 32072 ft 457 kts 330°
2026-05-04 13:12 52.91222 -1.52374 32072 ft 457 kts 330°
2026-05-04 13:12 52.96632 -1.57945 32073 ft 457 kts 330°
2026-05-04 13:13 53.02011 -1.63503 32073 ft 456 kts 331°
2026-05-04 13:13 53.07597 -1.68360 32069 ft 451 kts 342°
2026-05-04 13:14 53.13519 -1.72002 32067 ft 450 kts 342°
2026-05-04 13:14 53.19402 -1.75677 32069 ft 450 kts 343°
2026-05-04 13:15 53.25292 -1.79353 32070 ft 449 kts 343°
2026-05-04 13:15 53.31146 -1.83008 32070 ft 449 kts 343°
2026-05-04 13:16 53.37007 -1.86676 32064 ft 448 kts 343°
2026-05-04 13:16 53.42876 -1.90357 32075 ft 448 kts 343°
2026-05-04 13:17 53.48675 -1.94008 32073 ft 447 kts 343°
2026-05-04 13:17 53.54508 -1.97692 32067 ft 446 kts 343°
2026-05-04 13:18 53.60322 -2.01376 32064 ft 446 kts 343°
2026-05-04 13:18 53.66118 -2.05059 32053 ft 445 kts 342°
2026-05-04 13:19 53.71912 -2.08751 32051 ft 445 kts 342°
2026-05-04 13:19 53.77684 -2.12502 32053 ft 445 kts 341°
2026-05-04 13:20 53.83388 -2.16423 32049 ft 445 kts 341°
2026-05-04 13:20 53.89118 -2.20365 32049 ft 444 kts 341°
2026-05-04 13:21 53.94862 -2.24312 32050 ft 444 kts 341°
2026-05-04 13:21 54.00586 -2.28250 32050 ft 444 kts 341°
2026-05-04 13:22 54.06311 -2.32200 32053 ft 444 kts 341°
2026-05-04 13:22 54.11977 -2.36117 31773 ft 442 kts 340°
2026-05-04 13:22 54.14847 -2.38106 31515 ft 441 kts 340°
2026-05-04 13:23 54.17653 -2.40053 31264 ft 441 kts 340°
2026-05-04 13:23 54.20614 -2.42112 30999 ft 440 kts 340°
2026-05-04 13:23 54.22571 -2.43474 30822 ft 440 kts 340°
2026-05-04 13:23 54.25399 -2.45446 30566 ft 438 kts 340°
2026-05-04 13:24 54.28210 -2.47409 30328 ft 435 kts 340°
2026-05-04 13:24 54.31007 -2.49366 30075 ft 432 kts 340°
2026-05-04 13:24 54.33790 -2.51313 29788 ft 430 kts 340°
2026-05-04 13:25 54.39280 -2.55163 29219 ft 428 kts 340°
2026-05-04 13:25 54.42108 -2.57150 28931 ft 426 kts 340°
2026-05-04 13:25 54.44846 -2.59078 28643 ft 424 kts 340°
2026-05-04 13:25 54.47585 -2.61009 28380 ft 422 kts 339°
2026-05-04 13:26 54.50305 -2.62929 28102 ft 421 kts 339°
2026-05-04 13:26 54.53014 -2.64845 27841 ft 420 kts 339°
2026-05-04 13:26 54.55671 -2.66727 27572 ft 418 kts 339°
2026-05-04 13:26 54.58361 -2.68635 27313 ft 417 kts 339°
2026-05-04 13:27 54.61036 -2.70535 27051 ft 416 kts 339°
2026-05-04 13:27 54.63710 -2.72437 26792 ft 414 kts 339°
2026-05-04 13:27 54.66375 -2.74335 26535 ft 413 kts 339°
2026-05-04 13:27 54.69026 -2.76222 26276 ft 412 kts 339°
2026-05-04 13:28 54.71702 -2.78130 26064 ft 410 kts 338°
2026-05-04 13:28 54.74349 -2.80022 26035 ft 410 kts 338°
2026-05-04 13:28 54.76982 -2.81909 26031 ft 410 kts 338°
2026-05-04 13:28 54.79617 -2.83800 26032 ft 410 kts 338°
2026-05-04 13:29 54.82228 -2.85677 26030 ft 410 kts 338°
2026-05-04 13:29 54.84887 -2.87592 26032 ft 409 kts 338°
2026-05-04 13:29 54.87515 -2.89486 26031 ft 410 kts 338°
2026-05-04 13:29 54.90147 -2.91386 25887 ft 410 kts 338°
2026-05-04 13:30 54.92784 -2.93293 25365 ft 411 kts 338°
2026-05-04 13:30 54.95445 -2.95219 24500 ft 417 kts 338°
2026-05-04 13:30 54.98143 -2.97174 23666 ft 421 kts 338°
2026-05-04 13:30 55.00822 -2.99118 23124 ft 413 kts 337°
2026-05-04 13:31 55.03453 -3.01029 22549 ft 406 kts 337°
2026-05-04 13:31 55.06047 -3.02916 21991 ft 400 kts 337°
2026-05-04 13:31 55.08598 -3.04775 21426 ft 395 kts 336°
2026-05-04 13:31 55.11112 -3.06610 20895 ft 389 kts 336°
2026-05-04 13:32 55.13594 -3.08424 20340 ft 384 kts 336°
2026-05-04 13:32 55.16026 -3.10204 20074 ft 373 kts 336°
2026-05-04 13:32 55.18382 -3.11930 19885 ft 373 kts 336°
2026-05-04 13:32 55.20799 -3.13708 19685 ft 379 kts 336°
2026-05-04 13:33 55.23221 -3.15489 19489 ft 376 kts 336°
2026-05-04 13:33 55.25621 -3.17254 19294 ft 371 kts 335°
2026-05-04 13:33 55.27969 -3.18917 19099 ft 359 kts 340°
2026-05-04 13:33 55.30348 -3.19860 18890 ft 343 kts 351°
2026-05-04 13:34 55.32667 -3.19968 18696 ft 327 kts
2026-05-04 13:34 55.34923 -3.19593 18510 ft 323 kts
2026-05-04 13:34 55.37220 -3.19239 18310 ft 327 kts
2026-05-04 13:34 55.39483 -3.18898 18105 ft 325 kts
2026-05-04 13:35 55.41729 -3.18557 17897 ft 324 kts
2026-05-04 13:35 55.46220 -3.17862 16887 ft 323 kts
2026-05-04 13:35 55.48416 -3.17517 16283 ft 321 kts
2026-05-04 13:36 55.50649 -3.17167 15680 ft 318 kts
2026-05-04 13:36 55.52844 -3.16821 15057 ft 316 kts
2026-05-04 13:36 55.55018 -3.16478 14487 ft 312 kts
2026-05-04 13:36 55.57201 -3.16134 13900 ft 309 kts
2026-05-04 13:37 55.59336 -3.15798 13290 ft 307 kts
2026-05-04 13:37 55.61453 -3.15465 12696 ft 304 kts
2026-05-04 13:37 55.63536 -3.15138 12323 ft 294 kts
2026-05-04 13:37 55.64859 -3.14910 12220 ft 283 kts
2026-05-04 13:38 55.67391 -3.14020 11737 ft 274 kts
2026-05-04 13:38 55.69242 -3.13242 11235 ft 272 kts
2026-05-04 13:38 55.70957 -3.12521 10757 ft 272 kts
2026-05-04 13:38 55.72732 -3.11779 10298 ft 270 kts
2026-05-04 13:39 55.74567 -3.11010 9811 ft 269 kts
2026-05-04 13:39 55.76391 -3.10247 9289 ft 267 kts
2026-05-04 13:39 55.78194 -3.09500 8832 ft 264 kts
2026-05-04 13:39 55.79979 -3.08757 8343 ft 262 kts
2026-05-04 13:40 55.81752 -3.08017 7849 ft 261 kts
2026-05-04 13:40 55.83514 -3.07283 7376 ft 259 kts
2026-05-04 13:40 55.85251 -3.06557 7062 ft 258 kts
2026-05-04 13:40 55.86992 -3.05838 6753 ft 256 kts
2026-05-04 13:41 55.88734 -3.05117 6472 ft 255 kts
2026-05-04 13:41 55.90438 -3.04413 6298 ft 247 kts
2026-05-04 13:41 55.92071 -3.03730 6113 ft 234 kts
2026-05-04 13:42 55.95214 -3.02644 5385 ft 227 kts 359°
2026-05-04 13:42 55.96790 -3.02476 4915 ft 227 kts 359°
2026-05-04 13:42 55.98344 -3.02413 4431 ft 222 kts 346°
2026-05-04 13:42 55.99762 -3.03262 4001 ft 215 kts 336°
2026-05-04 13:43 56.01223 -3.04086 3614 ft 215 kts 339°
2026-05-04 13:43 56.02657 -3.04891 3318 ft 211 kts 333°
2026-05-04 13:43 56.03773 -3.06411 3231 ft 204 kts 300°
2026-05-04 13:43 56.04128 -3.08736 3190 ft 190 kts 268°
2026-05-04 13:44 56.03827 -3.11030 3104 ft 193 kts 249°
2026-05-04 13:44 56.03213 -3.13168 3015 ft 191 kts 241°
2026-05-04 13:44 56.02502 -3.15199 2821 ft 193 kts 240°
2026-05-04 13:44 56.01804 -3.17248 2580 ft 191 kts 240°
2026-05-04 13:45 56.01136 -3.19200 2338 ft 177 kts 241°
2026-05-04 13:45 56.00527 -3.20988 2102 ft 159 kts 241°
2026-05-04 13:45 55.99981 -3.22593 1900 ft 149 kts 241°
2026-05-04 13:45 55.99436 -3.24195 1711 ft 152 kts 241°
2026-05-04 13:46 55.98884 -3.25819 1496 ft 152 kts 242°
2026-05-04 13:46 55.98368 -3.27330 1291 ft 132 kts 241°
2026-05-04 13:46 55.97924 -3.28633 1112 ft 115 kts 242°
2026-05-04 13:46 55.97511 -3.29853 953 ft 119 kts 243°
2026-05-04 13:47 55.97071 -3.31147 787 ft 121 kts 242°
2026-05-04 13:47 55.96641 -3.32412 633 ft 118 kts 243°
2026-05-04 13:47 55.96219 -3.33668 469 ft 119 kts 243°
2026-05-04 13:47 55.95782 -3.34940 285 ft 120 kts 242°
2026-05-04 13:48 55.95357 -3.36189 122 ft 114 kts 242°
2026-05-04 13:48 55.95023 -3.37196 111 ft 58 kts 240°
2026-05-04 13:48 55.94862 -3.37674 114 ft 39 kts 237°
2026-05-04 13:48 55.94748 -3.37992 114 ft 20 kts 236°
2026-05-04 13:49 55.94667 -3.38026 111 ft 10 kts 152°
2026-05-04 13:49 55.94625 -3.37984 112 ft 0 kts 149°
2026-05-04 13:50 55.94621 -3.37980 111 ft 3 kts 149°
2026-05-04 13:50 55.94595 -3.37910 112 ft 10 kts 90°
2026-05-04 13:50 55.94639 -3.37752 111 ft 18 kts 59°
2026-05-04 13:51 55.94712 -3.37532 111 ft 22 kts 59°
2026-05-04 13:51 55.94796 -3.37285 111 ft 25 kts 57°
2026-05-04 13:51 55.94882 -3.37028 111 ft 25 kts 59°
2026-05-04 13:51 55.94977 -3.36751 112 ft 27 kts 59°
2026-05-04 13:52 55.95138 -3.36255 111 ft 12 kts 85°
2026-05-04 13:52 55.95111 -3.36095 111 ft 15 kts 108°
2026-05-04 13:52 55.95067 -3.35898 111 ft 18 kts 117°
2026-05-04 13:53 55.95011 -3.35839 110 ft 11 kts 194°
2026-05-04 13:53 55.94934 -3.35850 112 ft 11 kts 146°
2026-05-04 13:53 55.94899 -3.35754 111 ft 4 kts 130°
2026-05-04 13:54 55.94870 -3.35775 112 ft 5 kts 206°
2026-05-04 13:54 55.94838 -3.35806 111 ft 0 kts 207°
2026-05-04 13:54 55.94835 -3.35808 111 ft 0 kts 207°